Home   Weather   Wädenswil   Past weeks

Flag for Switzerland Past Weather in Wädenswil, Zurich, Switzerland — Yesterday and Last 2 Weeks

Now
35 °F

Chilly.


Feels Like: 32 °F
Forecast: 30 / 41 °F
Wind: 3 mph from Northeast

Location: Zuerich-Fluntern

Current Time: Apr 27, 2017 at 10:49:25 pm

Latest Report: Apr 27, 2017 at 9:00 pm


Visibility: N/A

Pressure: 29.98 "Hg

Humidity: 96%

Dew Point: 34 °F

Location of WädenswilLocation

Past Weather in Wädenswil — Graph

°F

Wädenswil Temperature Yesterday

Maximum temperature yesterday: 45 °F (at 12:00 am)
Minimum temperature yesterday: 32 °F (at 10:00 am)
Average temperature yesterday: 37 °F

High & Low Weather Summary for the Past Weeks

 TemperatureHumidityPressure
High66 °F (Apr 24, 5:00 pm)100% (Apr 26, 10:00 am)30.57 "Hg (Apr 26, 10:00 am)
Low28 °F (Apr 20, 6:00 am)26% (Apr 21, 6:00 pm)29.74 "Hg (Apr 26, 12:00 am)
Average45 °F69%30.14 "Hg
* Reported Apr 12 8:00 pm — Apr 27 8:00 pm, Wädenswil, Weather by CustomWeather, © 2017

Note: Actual official high and low records may vary slightly from our data, if they occured in-between our weather recording intervals... More about our weather records

Advertising

Wädenswil Weather History for the Previous 24 Hours

Scroll right to see more
 ConditionsComfort  
Time TempWeatherWind HumidityBarometerVisibility
8:00 pm
Thu, Apr 27
36 °FOvercast.3 mph95%29.98 "HgN/A
7:00 pm37 °FChilly.3 mph93%29.98 "HgN/A
6:00 pm37 °FChilly.2 mph95%29.98 "HgN/A
5:00 pm37 °FChilly.2 mph94%29.99 "HgN/A
4:00 pm39 °FChilly.2 mph91%29.98 "HgN/A
3:00 pm39 °FChilly.3 mph88%29.99 "HgN/A
2:00 pm39 °FOvercast.2 mph89%29.99 "HgN/A
1:00 pm38 °FChilly.2 mph91%30.00 "HgN/A
12:00 pm36 °FChilly.3 mph94%30.01 "HgN/A
11:00 am36 °FChilly.3 mph91%30.01 "HgN/A
10:00 am36 °FChilly.5 mph93%30.00 "HgN/A
9:00 am36 °FChilly.3 mph92%29.99 "HgN/A
8:00 am35 °FOvercast.2 mph95%29.99 "HgN/A
7:00 am36 °FChilly.5 mph94%29.97 "HgN/A
6:00 am36 °FChilly.3 mph97%29.96 "HgN/A
5:00 am36 °FChilly.1 mph95%29.95 "HgN/A
4:00 am36 °FChilly.2 mph94%29.96 "HgN/A
3:00 am36 °FChilly.1 mph92%29.95 "HgN/A
2:00 am36 °FChilly.1 mph92%29.96 "HgN/A
1:00 am36 °FChilly.1 mph93%29.94 "HgN/A
12:00 am36 °FChilly.2 mph92%29.93 "HgN/A
11:00 pm
Wed, Apr 26
37 °FChilly.2 mph92%29.93 "HgN/A
10:00 pm37 °FChilly.2 mph95%29.93 "HgN/A
Weather by CustomWeather, © 2017

See weather overviewHow to use our weather pages